Address 0x2e501841d133ca23b01cd5773832a7369a35ea0f 11

Txn Hash Method
Block
From
To
Value [Txn Fee]
0x2509f73b30b9e86f08a5964677d2c50faff4bda59c9db6e679bcda24d3dc8ba80x6549920d139713592022-09-26 3:24:251 day 23 hrs ago0x2e501841d133ca23b01cd5773832a7369a35ea0fOUT0x2e1d0c56c6913fd6135f887080f7a14123a142a80 AVAX0.064629100
0x5fcbdcb434c1222526171e63bc1c2d10c620773c935e2037ec40c9b3edcdf4c40xbef1e500139697912022-09-26 2:56:161 day 23 hrs ago0x2e501841d133ca23b01cd5773832a7369a35ea0fOUT0x2e1d0c56c6913fd6135f887080f7a14123a142a80 AVAX0.026724100
0x55a6ad26eb398b207b567ae2ef23e5b727a359c3bfdb5b97a04dc18971250db70x6549920d139689882022-09-26 2:42:102 days 10 mins ago0x2e501841d133ca23b01cd5773832a7369a35ea0fOUT0x2e1d0c56c6913fd6135f887080f7a14123a142a80 AVAX0.0638322100
0x79810f5ae39b1e2cb068aada598b27e6be5ba8484901cee3aebec8ce83b7570c0xbef1e500139676422022-09-26 2:18:352 days 33 mins ago0x2e501841d133ca23b01cd5773832a7369a35ea0fOUT0x2e1d0c56c6913fd6135f887080f7a14123a142a80 AVAX0.026724100
0x8f1de9d641c58455402f556b47e5a6a90e615609ad9aad5c0c5c010a0c7edd560x6549920d139665022022-09-26 1:58:472 days 53 mins ago0x2e501841d133ca23b01cd5773832a7369a35ea0fOUT0x2e1d0c56c6913fd6135f887080f7a14123a142a80 AVAX0.0649219100
0xcc3aba215f3b08ee3de6144dc2b5d5f66f365ed690b4279866f49b87b13a39670xbef1e500139654452022-09-26 1:40:282 days 1 hr ago0x2e501841d133ca23b01cd5773832a7369a35ea0fOUT0x2e1d0c56c6913fd6135f887080f7a14123a142a80 AVAX0.028434100
0xf20ed3f6f1c61461ca95346e44c0b8eed18df80ff78a6a530cc7baeb1801c33d0x6549920d139640362022-09-26 1:15:432 days 1 hr ago0x2e501841d133ca23b01cd5773832a7369a35ea0fOUT0x2e1d0c56c6913fd6135f887080f7a14123a142a80 AVAX0.066339100
0x016a0c2b2b3e1455f9ce7f9e155c857fd40f931e837903cce13af4eceac2dad60x6549920d139617782022-09-26 0:33:142 days 2 hrs ago0x2e501841d133ca23b01cd5773832a7369a35ea0fOUT0x2e1d0c56c6913fd6135f887080f7a14123a142a80 AVAX0.0655422100
0x2f2bd85ee5ff70f602af8c463338658907193c657da03e80f493cdb20d34c8290x6549920d139595032022-09-25 23:51:512 days 3 hrs ago0x2e501841d133ca23b01cd5773832a7369a35ea0fOUT0x2e1d0c56c6913fd6135f887080f7a14123a142a80 AVAX0.0649219100
0x08079bf883485d29b5fc20e1b94d1c7648c9711763869ea8e0e19963fb92b1e90x6549920d139572042022-09-25 23:08:462 days 3 hrs ago0x2e501841d133ca23b01cd5773832a7369a35ea0fOUT0x2e1d0c56c6913fd6135f887080f7a14123a142a80 AVAX0.068049100
0xdd3ba1a8187856b177642ae179432ba3af2e463469c3dd2b5b326324176ae14e0x6549920d139548952022-09-25 22:25:432 days 4 hrs ago0x2e501841d133ca23b01cd5773832a7369a35ea0fOUT0x2e1d0c56c6913fd6135f887080f7a14123a142a80 AVAX0.0655422100
0xca8cac2bae30a8b741c1ebe59c10bb38ca92e7b00c065388ece43c1b5459ea2b0x6549920d139525772022-09-25 21:42:542 days 5 hrs ago0x2e501841d133ca23b01cd5773832a7369a35ea0fOUT0x2e1d0c56c6913fd6135f887080f7a14123a142a80 AVAX0.0649219100
0xf5f1b88a361a7b6accf29f5d2536ed0eb17e0d95636f0307876a5cb58ba06d120x6549920d139502582022-09-25 20:59:302 days 5 hrs ago0x2e501841d133ca23b01cd5773832a7369a35ea0fOUT0x2e1d0c56c6913fd6135f887080f7a14123a142a80 AVAX0.068049100
0x307654f3a019855ca430aee624cbfd73bd039d79315d7f3150f24cb31a2c2f8b0x6549920d139478762022-09-25 20:14:422 days 6 hrs ago0x2e501841d133ca23b01cd5773832a7369a35ea0fOUT0x2e1d0c56c6913fd6135f887080f7a14123a142a80 AVAX0.0655422100
0xf8edd5e594fce52e9821271f8608a288bd036790caf248901540cb9c5f8f4ad9Harvest139463952022-09-25 19:46:562 days 7 hrs ago0x2e501841d133ca23b01cd5773832a7369a35ea0fOUT0x951accccfdf619d3cd8cfe0e4823d8e80354eb410 AVAX0.0081923100
0x25609af7e6dbfcf6a6c885a5392cc432f5d3c4bf414e3265cf59697614c663010x6549920d139455322022-09-25 19:31:012 days 7 hrs ago0x2e501841d133ca23b01cd5773832a7369a35ea0fOUT0x2e1d0c56c6913fd6135f887080f7a14123a142a80 AVAX0.0649219100
0xf0fb4ee7fa655877e45cede22915e1523dde8aa01968c868c0aa5103339ccbbdHarvest139442082022-09-25 19:06:232 days 7 hrs ago0x2e501841d133ca23b01cd5773832a7369a35ea0fOUT0x951accccfdf619d3cd8cfe0e4823d8e80354eb410 AVAX0.0081923100
0x1b5349053efe80d8379a7e082e5cb0e6e53346fa7d8aaa61c7d40d462df8e0100x6549920d139431152022-09-25 18:44:552 days 8 hrs ago0x2e501841d133ca23b01cd5773832a7369a35ea0fOUT0x2e1d0c56c6913fd6135f887080f7a14123a142a80 AVAX0.068049100
0x092a277744d72afe7e7e57cd89b94884e5ad2cc741a7d4234b569ca96bd24cb6Harvest139419962022-09-25 18:23:532 days 8 hrs ago0x2e501841d133ca23b01cd5773832a7369a35ea0fOUT0x951accccfdf619d3cd8cfe0e4823d8e80354eb410 AVAX0.00647100
0xe3614a527373ba7d9e9a498377b2b0d63689976bb07f5e95b5e651d01e49658d0x6549920d139407282022-09-25 17:58:462 days 8 hrs ago0x2e501841d133ca23b01cd5773832a7369a35ea0fOUT0x2e1d0c56c6913fd6135f887080f7a14123a142a80 AVAX0.0672522100
0x80fb9306caaeb6b2d3fa0407b2d30e647ce6e5eec38481fe9b479c1b80e52423Harvest139397962022-09-25 17:40:172 days 9 hrs ago0x2e501841d133ca23b01cd5773832a7369a35ea0fOUT0x951accccfdf619d3cd8cfe0e4823d8e80354eb410 AVAX0.00647100
0x97cc7547b6d1656cfb419354530c191fe2f64fac3f82b16dfe0fc0c10b05212c0x6549920d139382752022-09-25 17:10:482 days 9 hrs ago0x2e501841d133ca23b01cd5773832a7369a35ea0fOUT0x2e1d0c56c6913fd6135f887080f7a14123a142a80 AVAX0.0666319100
0x3bd0f14d9af00e6db80dfe9cc1d2c6186ebe3a3a953995dcc92c7f9d0b90734fHarvest139374902022-09-25 16:55:092 days 9 hrs ago0x2e501841d133ca23b01cd5773832a7369a35ea0fOUT0x951accccfdf619d3cd8cfe0e4823d8e80354eb410 AVAX0.0081923100
0xe1d95efb1fd71d8b30fa036795c4f3b9418fcbe4ac924c527c7938aef68d0f1d0x4ea4c6b3139363412022-09-25 16:24:512 days 10 hrs ago0x2e501841d133ca23b01cd5773832a7369a35ea0fOUT0x2e1d0c56c6913fd6135f887080f7a14123a142a80 AVAX0.0212157100
0x95478f1bcedc74629f695df0f7550c9fac13b4475d6b63841e33cbe0478f76b60xab07211e139358152022-09-25 16:07:202 days 10 hrs ago0x2e501841d133ca23b01cd5773832a7369a35ea0fOUT0x2e1d0c56c6913fd6135f887080f7a14123a142a80 AVAX0.0210672100
[ Download CSV Export 
Parent Txn Hash Block From To Value
Loading

Contract Name:
0

Compiler Version
0

Optimization Enabled:
0

Other Settings:
-NA-
Block Transaction Gas Used Reward
Age Block Fee Address BC Fee Address Voting Power Jailed Incoming
Block Uncle Number Difficulty Gas Used Reward
Loading